Time,TemperatureF,DewpointF,PressureIn,WindDirection,WindDirectionDegrees,WindSpeedMPH,WindSpeedGustMPH,Humidity,HourlyPrecipIn,Conditions,Clouds,dailyrainin,SoftwareType,DateUTC
2013-08-21 00:03:00,79.7,65.0,29.91,NNW,337,0.0,-999.0,61,-99.99,,,0.00,Acu-Link.com,2013-08-21 05:03:00,
2013-08-21 00:18:00,79.7,65.0,29.92,WNW,292,0.0,-999.0,61,-99.99,,,0.00,Acu-Link.com,2013-08-21 05:18:00,
2013-08-21 00:34:00,79.5,64.9,29.92,WSW,247,0.0,-999.0,61,-99.99,,,0.00,Acu-Link.com,2013-08-21 05:34:00,
2013-08-21 00:49:00,79.5,63.9,29.93,SW,225,0.0,-999.0,59,-99.99,,,0.00,Acu-Link.com,2013-08-21 05:49:00,
2013-08-21 01:04:00,79.7,64.1,29.93,WSW,247,0.0,-999.0,59,-99.99,,,0.00,Acu-Link.com,2013-08-21 06:04:00,
2013-08-21 01:20:00,79.2,64.6,29.93,North,0,0.0,-999.0,61,-99.99,,,0.00,Acu-Link.com,2013-08-21 06:20:00,
2013-08-21 01:35:00,78.6,64.5,29.94,WNW,292,0.0,-999.0,62,-99.99,,,0.00,Acu-Link.com,2013-08-21 06:35:00,
2013-08-21 01:50:00,78.6,65.4,29.94,SW,225,0.0,-999.0,64,-99.99,,,0.00,Acu-Link.com,2013-08-21 06:50:00,
2013-08-21 02:06:00,78.4,65.6,29.94,West,270,0.0,-999.0,65,-99.99,,,0.00,Acu-Link.com,2013-08-21 07:06:00,
2013-08-21 02:21:00,77.9,66.0,29.94,WNW,292,0.0,-999.0,67,-99.99,,,0.00,Acu-Link.com,2013-08-21 07:21:00,
2013-08-21 02:36:00,77.5,66.1,29.93,West,270,0.0,-999.0,68,-99.99,,,0.00,Acu-Link.com,2013-08-21 07:36:00,
2013-08-21 02:51:00,77.2,66.6,29.94,WNW,292,0.0,-999.0,70,-99.99,,,0.00,Acu-Link.com,2013-08-21 07:51:00,
2013-08-21 03:07:00,77.0,67.3,29.93,SW,225,0.0,-999.0,72,-99.99,,,0.00,Acu-Link.com,2013-08-21 08:07:00,
2013-08-21 03:22:00,76.6,66.9,29.94,WSW,247,0.0,-999.0,72,-99.99,,,0.00,Acu-Link.com,2013-08-21 08:22:00,
2013-08-21 03:37:00,76.5,67.2,29.94,West,270,0.0,-999.0,73,-99.99,,,0.00,Acu-Link.com,2013-08-21 08:37:00,
2013-08-21 03:52:00,76.3,67.4,29.94,WSW,247,0.0,-999.0,74,-99.99,,,0.00,Acu-Link.com,2013-08-21 08:52:00,
2013-08-21 04:07:00,76.1,67.6,29.93,SW,225,0.0,-999.0,75,-99.99,,,0.00,Acu-Link.com,2013-08-21 09:07:00,
2013-08-21 04:23:00,76.3,68.2,29.93,NNW,337,0.0,-999.0,76,-99.99,,,0.00,Acu-Link.com,2013-08-21 09:23:00,
2013-08-21 04:38:00,76.3,68.2,29.94,West,270,0.0,-999.0,76,-99.99,,,0.00,Acu-Link.com,2013-08-21 09:38:00,
2013-08-21 04:53:00,75.9,68.2,29.94,SW,225,0.0,-999.0,77,-99.99,,,0.00,Acu-Link.com,2013-08-21 09:53:00,
2013-08-21 05:08:00,75.7,68.3,29.95,West,270,0.0,-999.0,78,-99.99,,,0.00,Acu-Link.com,2013-08-21 10:08:00,
2013-08-21 05:24:00,75.4,68.8,29.94,NE,45,0.0,-999.0,80,-99.99,,,0.00,Acu-Link.com,2013-08-21 10:24:00,
2013-08-21 05:39:00,75.2,69.0,29.95,West,270,0.0,-999.0,81,-99.99,,,0.00,Acu-Link.com,2013-08-21 10:39:00,
2013-08-21 05:54:00,74.8,69.6,29.96,WSW,247,0.0,-999.0,84,-99.99,,,0.00,Acu-Link.com,2013-08-21 10:54:00,
2013-08-21 06:09:00,74.5,70.0,29.96,West,270,0.0,-999.0,86,-99.99,,,0.00,Acu-Link.com,2013-08-21 11:09:00,
2013-08-21 06:24:00,74.3,70.8,29.96,NW,315,0.0,-999.0,89,-99.99,,,0.00,Acu-Link.com,2013-08-21 11:24:00,
2013-08-21 06:40:00,74.5,71.4,29.97,SW,225,0.0,-999.0,90,-99.99,,,0.00,Acu-Link.com,2013-08-21 11:40:00,
2013-08-21 06:55:00,74.3,71.5,29.97,NNW,337,0.0,-999.0,91,-99.99,,,0.00,Acu-Link.com,2013-08-21 11:55:00,
2013-08-21 07:10:00,74.3,71.8,29.97,West,270,0.0,-999.0,92,-99.99,,,0.00,Acu-Link.com,2013-08-21 12:10:00,
2013-08-21 07:26:00,74.3,73.1,29.97,West,270,0.0,-999.0,96,-99.99,,,0.00,Acu-Link.com,2013-08-21 12:26:00,
2013-08-21 07:41:00,74.3,73.7,29.97,SW,225,0.0,-999.0,98,-99.99,,,0.00,Acu-Link.com,2013-08-21 12:41:00,
2013-08-21 07:56:00,74.7,74.1,29.98,West,270,0.0,-999.0,98,-99.99,,,0.00,Acu-Link.com,2013-08-21 12:56:00,
2013-08-21 08:12:00,74.8,74.2,29.98,WNW,292,0.0,-999.0,98,-99.99,,,0.00,Acu-Link.com,2013-08-21 13:12:00,
2013-08-21 08:27:00,75.4,74.5,29.98,SSW,202,1.1,-999.0,97,-99.99,,,0.00,Acu-Link.com,2013-08-21 13:27:00,
2013-08-21 08:42:00,75.9,73.7,29.98,WSW,247,0.0,-999.0,93,-99.99,,,0.00,Acu-Link.com,2013-08-21 13:42:00,
2013-08-21 08:57:00,76.5,72.7,29.98,WSW,247,1.7,-999.0,88,-99.99,,,0.00,Acu-Link.com,2013-08-21 13:57:00,
2013-08-21 09:13:00,77.5,73.3,29.99,West,270,0.0,-999.0,87,-99.99,,,0.00,Acu-Link.com,2013-08-21 14:13:00,
2013-08-21 09:28:00,78.8,74.2,29.99,South,180,0.0,-999.0,86,-99.99,,,0.00,Acu-Link.com,2013-08-21 14:28:00,
2013-08-21 09:43:00,82.0,74.1,29.99,West,270,0.0,-999.0,77,-99.99,,,0.00,Acu-Link.com,2013-08-21 14:43:00,
2013-08-21 09:59:00,83.8,74.2,29.99,NNW,337,2.2,-999.0,73,-99.99,,,0.00,Acu-Link.com,2013-08-21 14:59:00,
2013-08-21 10:14:00,85.3,73.9,30.00,SSW,202,2.2,-999.0,69,-99.99,,,0.00,Acu-Link.com,2013-08-21 15:14:00,
2013-08-21 10:29:00,86.4,74.6,29.99,SSW,202,2.7,-999.0,68,-99.99,,,0.00,Acu-Link.com,2013-08-21 15:29:00,
2013-08-21 10:44:00,86.2,73.5,30.00,WSW,247,0.0,-999.0,66,-99.99,,,0.00,Acu-Link.com,2013-08-21 15:44:00,
2013-08-21 11:00:00,87.6,73.9,29.99,WSW,247,4.7,-999.0,64,-99.99,,,0.00,Acu-Link.com,2013-08-21 16:00:00,
2013-08-21 11:15:00,88.2,74.0,29.99,SSW,202,1.7,-999.0,63,-99.99,,,0.00,Acu-Link.com,2013-08-21 16:15:00,
2013-08-21 11:30:00,88.5,72.8,29.99,South,180,1.7,-999.0,60,-99.99,,,0.00,Acu-Link.com,2013-08-21 16:30:00,
2013-08-21 11:45:00,89.6,74.3,29.99,West,270,0.0,-999.0,61,-99.99,,,0.00,Acu-Link.com,2013-08-21 16:45:00,
2013-08-21 12:01:00,90.1,72.8,29.98,WSW,247,1.7,-999.0,57,-99.99,,,0.00,Acu-Link.com,2013-08-21 17:01:00,
2013-08-21 12:16:00,90.5,72.6,29.98,ESE,112,0.0,-999.0,56,-99.99,,,0.00,Acu-Link.com,2013-08-21 17:16:00,
2013-08-21 12:31:00,90.9,72.5,29.97,South,180,0.0,-999.0,55,-99.99,,,0.00,Acu-Link.com,2013-08-21 17:31:00,
2013-08-21 12:47:00,91.2,71.6,29.97,SSW,202,0.0,-999.0,53,-99.99,,,0.00,Acu-Link.com,2013-08-21 17:47:00,
2013-08-21 13:02:00,92.5,72.3,29.96,SW,225,2.2,-999.0,52,-99.99,,,0.00,Acu-Link.com,2013-08-21 18:02:00,
2013-08-21 13:17:00,93.6,72.7,29.96,SSW,202,1.1,-999.0,51,-99.99,,,0.00,Acu-Link.com,2013-08-21 18:17:00,
2013-08-21 13:33:00,93.4,71.9,29.96,South,180,1.7,-999.0,50,-99.99,,,0.00,Acu-Link.com,2013-08-21 18:33:00,
2013-08-21 13:48:00,94.1,71.4,29.95,SSW,202,2.2,-999.0,48,-99.99,,,0.00,Acu-Link.com,2013-08-21 18:48:00,
2013-08-21 14:03:00,94.8,72.0,29.95,SW,225,2.7,-999.0,48,-99.99,,,0.00,Acu-Link.com,2013-08-21 19:03:00,
2013-08-21 14:18:00,95.2,72.4,29.95,South,180,1.7,-999.0,48,-99.99,,,0.00,Acu-Link.com,2013-08-21 19:18:00,
2013-08-21 14:34:00,94.5,72.3,29.93,NNE,22,0.0,-999.0,49,-99.99,,,0.00,Acu-Link.com,2013-08-21 19:34:00,
2013-08-21 14:49:00,94.5,71.7,29.94,South,180,1.1,-999.0,48,-99.99,,,0.00,Acu-Link.com,2013-08-21 19:49:00,
2013-08-21 15:04:00,93.9,71.2,29.92,SW,225,0.0,-999.0,48,-99.99,,,0.00,Acu-Link.com,2013-08-21 20:04:00,
2013-08-21 15:20:00,95.5,72.0,29.92,SSW,202,1.1,-999.0,47,-99.99,,,0.00,Acu-Link.com,2013-08-21 20:20:00,
2013-08-21 15:35:00,96.1,72.6,29.92,NNE,22,2.2,-999.0,47,-99.99,,,0.00,Acu-Link.com,2013-08-21 20:35:00,
2013-08-21 15:50:00,93.9,70.6,29.91,SSW,202,1.7,-999.0,47,-99.99,,,0.00,Acu-Link.com,2013-08-21 20:50:00,
2013-08-21 16:05:00,94.1,70.1,29.91,West,270,3.7,-999.0,46,-99.99,,,0.00,Acu-Link.com,2013-08-21 21:05:00,
2013-08-21 16:21:00,93.0,71.6,29.90,North,0,0.0,-999.0,50,-99.99,,,0.00,Acu-Link.com,2013-08-21 21:21:00,
2013-08-21 16:36:00,92.5,71.7,29.90,SW,225,0.0,-999.0,51,-99.99,,,0.00,Acu-Link.com,2013-08-21 21:36:00,
2013-08-21 16:51:00,94.1,70.1,29.89,West,270,0.0,-999.0,46,-99.99,,,0.00,Acu-Link.com,2013-08-21 21:51:00,
2013-08-21 17:06:00,93.2,72.3,29.89,NW,315,0.0,-999.0,51,-99.99,,,0.00,Acu-Link.com,2013-08-21 22:06:00,
2013-08-21 17:21:00,93.2,70.5,29.88,West,270,1.1,-999.0,48,-99.99,,,0.00,Acu-Link.com,2013-08-21 22:21:00,
2013-08-21 17:36:00,93.6,70.3,29.88,West,270,0.0,-999.0,47,-99.99,,,0.00,Acu-Link.com,2013-08-21 22:36:00,
2013-08-21 17:51:00,94.3,69.6,29.89,SW,225,0.0,-999.0,45,-99.99,,,0.00,Acu-Link.com,2013-08-21 22:51:00,
2013-08-21 18:07:00,93.0,69.7,29.89,SSW,202,1.7,-999.0,47,-99.99,,,0.00,Acu-Link.com,2013-08-21 23:07:00,
2013-08-21 18:22:00,92.8,70.2,29.89,WSW,247,0.0,-999.0,48,-99.99,,,0.00,Acu-Link.com,2013-08-21 23:22:00,
2013-08-21 18:38:00,92.3,70.3,29.89,SSW,202,0.0,-999.0,49,-99.99,,,0.00,Acu-Link.com,2013-08-21 23:38:00,
2013-08-21 18:53:00,91.4,70.1,29.89,South,180,0.0,-999.0,50,-99.99,,,0.00,Acu-Link.com,2013-08-21 23:53:00,
2013-08-21 19:08:00,90.9,69.6,29.89,West,270,0.0,-999.0,50,-99.99,,,0.00,Acu-Link.com,2013-08-22 00:08:00,
2013-08-21 19:23:00,90.3,69.1,29.90,West,270,0.0,-999.0,50,-99.99,,,0.00,Acu-Link.com,2013-08-22 00:23:00,
2013-08-21 19:38:00,89.8,69.2,29.89,West,270,0.0,-999.0,51,-99.99,,,0.00,Acu-Link.com,2013-08-22 00:38:00,
2013-08-21 19:54:00,89.1,69.1,29.90,SSW,202,0.0,-999.0,52,-99.99,,,0.00,Acu-Link.com,2013-08-22 00:54:00,
2013-08-21 20:09:00,88.3,68.4,29.90,West,270,0.0,-999.0,52,-99.99,,,0.00,Acu-Link.com,2013-08-22 01:09:00,
2013-08-21 20:24:00,87.4,67.6,29.91,SE,135,0.0,-999.0,52,-99.99,,,0.00,Acu-Link.com,2013-08-22 01:24:00,
2013-08-21 20:39:00,86.7,67.5,29.91,West,270,0.0,-999.0,53,-99.99,,,0.00,Acu-Link.com,2013-08-22 01:39:00,
2013-08-21 20:55:00,86.2,67.6,29.91,West,270,0.0,-999.0,54,-99.99,,,0.00,Acu-Link.com,2013-08-22 01:55:00,
2013-08-21 21:10:00,85.8,67.2,29.92,NNW,337,0.0,-999.0,54,-99.99,,,0.00,Acu-Link.com,2013-08-22 02:10:00,
2013-08-21 21:25:00,85.3,67.3,29.92,North,0,0.0,-999.0,55,-99.99,,,0.00,Acu-Link.com,2013-08-22 02:25:00,
2013-08-21 21:40:00,85.1,68.1,29.93,WNW,292,0.0,-999.0,57,-99.99,,,0.00,Acu-Link.com,2013-08-22 02:40:00,
2013-08-21 21:55:00,84.4,67.5,29.94,West,270,0.0,-999.0,57,-99.99,,,0.00,Acu-Link.com,2013-08-22 02:55:00,
2013-08-21 22:10:00,83.8,67.4,29.94,West,270,0.0,-999.0,58,-99.99,,,0.00,Acu-Link.com,2013-08-22 03:10:00,
2013-08-21 22:26:00,83.7,68.3,29.94,WSW,247,0.0,-999.0,60,-99.99,,,0.00,Acu-Link.com,2013-08-22 03:26:00,
2013-08-21 22:41:00,82.9,68.0,29.94,SSW,202,0.0,-999.0,61,-99.99,,,0.00,Acu-Link.com,2013-08-22 03:41:00,
2013-08-21 22:56:00,82.6,68.2,29.94,SW,225,0.0,-999.0,62,-99.99,,,0.00,Acu-Link.com,2013-08-22 03:56:00,
2013-08-21 23:12:00,82.4,69.0,29.95,West,270,0.0,-999.0,64,-99.99,,,0.00,Acu-Link.com,2013-08-22 04:12:00,
2013-08-21 23:27:00,81.9,68.5,29.96,North,0,0.0,-999.0,64,-99.99,,,0.00,Acu-Link.com,2013-08-22 04:27:00,
2013-08-21 23:42:00,81.7,68.8,29.96,North,0,0.0,-999.0,65,-99.99,,,0.00,Acu-Link.com,2013-08-22 04:42:00,
2013-08-21 23:57:00,81.5,69.5,29.96,North,0,0.0,-999.0,67,-99.99,,,0.00,Acu-Link.com,2013-08-22 04:57:00,